Location: Lafig�re
(44.4503°N, 4.0357°E)
Time: 15:41:59
(UTC+00:00)

Transit 2A Rocket - Pass Details

Date: 26 January 2021
Orbit: 594 x 908 km, 66.7° (Epoch: 06 March)

Event Time Altitude Azimuth Distance (km) Brightness Sun altitude
Rises 19:54:01 0° 329° (NNW) 2,913 8.5 -33.7°
Reaches altitude 10° 19:56:20 10° 331° (NNW) 1,975 7.5 -34.1°
Enters shadow 19:56:27 11° 331° (NNW) 1,928 7.4 -34.1°
Maximum altitude 20:00:44 75° 57° (ENE) 622 - -34.8°
Drops below altitude 10° 20:05:00 10° 143° (SE) 1,924 - -35.6°
Sets 20:07:14 0° 145° (SE) 2,830 - -36.0°
